This is the latest recevied weather packets stored in our database for station/object IW2NTF-3. If no packets are shown the sender has not sent any weather packets the latest 10 day(s).
| Time | Temp. | Humidity | Pressure | Rain* | Wind** | Luminosity | Snow |
|---|---|---|---|---|---|---|---|
| 1778154663 | 22.22° C | 57% | 1012.8 hPa | 0 mm | - | 951 W/m² | - |
| 1778154603 | 22.22° C | 56% | 1012.9 hPa | 0 mm | - | 951 W/m² | - |
| 1778154544 | 22.22° C | 57% | 1012.9 hPa | 0 mm | - | 937 W/m² | - |
| 1778154484 | 22.22° C | 58% | 1012.9 hPa | 0 mm | - | 937 W/m² | - |
| 1778154423 | 22.22° C | 58% | 1012.7 hPa | 0 mm | - | 933 W/m² | - |
| 1778154364 | 22.22° C | 60% | 1012.7 hPa | 0 mm | - | 937 W/m² | - |
| 1778154304 | 21.67° C | 61% | 1012.8 hPa | 0 mm | - | 942 W/m² | - |
| 1778154244 | 21.67° C | 61% | 1012.8 hPa | 0 mm | - | 949 W/m² | - |
| 1778154184 | 21.67° C | 59% | 1012.8 hPa | 0 mm | - | 953 W/m² | - |
| 1778154124 | 22.22° C | 59% | 1012.8 hPa | 0 mm | - | 956 W/m² | - |
| 1778154063 | 22.22° C | 60% | 1012.8 hPa | 0 mm | - | 958 W/m² | - |
| 1778154003 | 22.22° C | 61% | 1012.8 hPa | 0 mm | - | 958 W/m² | - |
| 1778153943 | 22.22° C | 60% | 1012.8 hPa | 0 mm | - | 958 W/m² | - |
| 1778153883 | 22.22° C | 61% | 1012.8 hPa | 0 mm | - | 962 W/m² | - |
| 1778153823 | 21.67° C | 60% | 1013 hPa | 0 mm | - | 963 W/m² | - |
| 1778153763 | 21.67° C | 59% | 1013 hPa | 0 mm | - | 984 W/m² | - |
| 1778153703 | 21.67° C | 59% | 1012.9 hPa | 0 mm | - | 983 W/m² | - |
| 1778153643 | 21.67° C | 60% | 1012.9 hPa | 0 mm | - | 981 W/m² | - |
| 1778153583 | 21.67° C | 61% | 1012.9 hPa | 0 mm | - | 976 W/m² | - |
| 1778153523 | 21.67° C | 60% | 1013 hPa | 0 mm | - | 972 W/m² | - |
| 1778153463 | 21.67° C | 59% | 1013 hPa | 0 mm | - | 976 W/m² | - |
| 1778153403 | 21.67° C | 59% | 1012.9 hPa | 0 mm | - | 993 W/m² | - |
| 1778153343 | 21.67° C | 60% | 1012.9 hPa | 0 mm | - | 993 W/m² | - |
| 1778153284 | 21.67° C | 60% | 1012.9 hPa | 0 mm | - | 976 W/m² | - |
| 1778153223 | 21.67° C | 60% | 1012.9 hPa | 0 mm | - | 977 W/m² | - |
* Rain latest hour (hover to see other rain measurements)
** Current wind speed in m/s (hover to see current wind gust speed)